Location: Boulin
(43.2500°N, 0.1333°E)
Time: 00:51:04
(UTC+00:00)

Spot 4 Rocket - Pass Details

Date: 11 December 2025
Orbit: 769 x 773 km, 98.8° (Epoch: 19 January)

Event Time Altitude Azimuth Distance (km) Brightness Sun altitude
Rises 18:15:34 0° 159° (SSE) 3,229 7.2 -19.5°
Reaches altitude 10° 18:17:51 10° 158° (SSE) 2,307 6.4 -19.9°
Maximum altitude 18:22:56 75° 74° (ENE) 801 3.9 -20.8°
Drops below altitude 10° 18:28:03 10° 349° (N) 2,327 6.5 -21.8°
Sets 18:30:22 0° 348° (NNW) 3,259 7.3 -22.2°
